Volver al catálogo

STARLINK-38136

ActivoComunicacionesSSO
NORAD 100166·PAYLOAD·🇺🇸 United States

Lanzado Jul 25, 2026 desde Vandenberg Space Force Base

Loading…

Próximos Pases (próximas 24 horas)

TLE

ActualizadoSource: Space-Track

Época: Sep 14, 2026, 13:27 UTC

1 A0166U 26171U   26257.56056152  .00031182  00000-0  86163-3 0  9994
2 A0166  97.2832 290.0548 0000778 260.8125  99.3032 15.36988129  7982

Sigue STARLINK-38136 en tiempo real con AllMySat

Download on the App Store